User: anonymous   Login
Location: Unspecified
(0.0000°N, 0.0000°E)
Time: 02:10:33
(UTC+00:00)
Language:

N. Korean satellite - Orbit

View from above orbital plane
View from above orbital plane
View from above satellite
View from above satellite

Ground track
Ground track

The orbit data is extracted from the following two-line orbital elements,

1 39026U 12072A   17017.69615991  .00001524  00000-0  62889-4 0  9993
2 39026  97.2333  40.6736 0041007 352.1687   7.8906 15.24794681227052
Epoch (UTC): 17 January 2017 16:42:28
Eccentricity: 0.0041007
inclination: 97.2333°
perigee height: 463 km
apogee height: 519 km
right ascension of ascending node: 40.6736°
argument of perigee: 352.1687°
revolutions per day: 15.24794681
mean anomaly at epoch: 7.8906°
orbit number at epoch: 22705

The dashed part of the orbit path shows where the satellite is in the earth's shadow,  

DLR